CAPE
0 6 11 2 0 0 1 6 11 1 9 3 9 5 13 25 40 6 0 0 0 207 687 1012 1101 1103 1028 1105 758 326 3 2 3 2 1 2 0 0 0 0 0 0 0 0
1 1 5 2 0 0 0 0 0 0 2 11 22 6 0 0 0 0 0 0 0 11 412 1116 1207 1181 880 315 15 0 2 2 2 2 4 2 0 1 0 0 0 0 0 0
4 9 6 6 0 0 0 0 0 0 4 19 20 6 0 0 0 0 0 3 0 7 490 991 917 251 0 0 0 0 1 1 3 4 2 0 0 0 0 0 0 0 0 1
12 0 6 0 0 0 0 0 0 6 1 0 4 0 0 0 0 0 0 0 30 204 364 388 73 0 1 0 0 0 0 1 1 0 0 0 0 0 0 0 0 1 0 0
17 0 0 0 0 0 0 0 0 3 0 8 3 0 0 0 0 0 0 0 6 27 34 7 0 0 1 0 0 0 0 0 0 0 0 0 0 0 0 0 0 0 0 0
36 0 0 0 0 0 0 0 0 12 9 0 0 0 0 0 0 0 0 0 0 0 0 1 1 2 1 0 0 0 0 0 0 0 0 0 0 0 0 0 0 0 0 0
90 43 4 0 0 4 0 0 26 7 0 0 0 0 0 0 0 0 0 0 0 0 0 0 0 0 0 0 0 0 0 0 0 0 0 0 0 0 0 0 0 0 0 0
19 37 15 0 0 4 21 12 28 0 0 0 0 0 0 0 0 0 0 0 0 0 0 0 0 0 0 0 0 0 0 0 0 0 0 0 0 0 0 0 0 0 0 0
45 54 59 7 33 19 33 69 72 4 0 0 0 0 0 0 0 0 0 0 0 0 0 0 0 0 0 0 0 0 0 0 0 0 0 0 0 0 0 0 0 0 0 0
0 1 50 61 49 22 38 36 26 1 0 0 0 0 0 0 0 0 0 0 0 0 0 0 0 0 0 0 0 0 0 0 0 0 0 0 0 0 0 0 0 0 0 0
0 0 2 53 42 79 56 1 0 0 0 0 0 0 0 0 0 0 0 0 0 0 0 0 0 0 0 0 0 0 0 0 0 0 0 0 0 0 0 0 0 0 0 0
22 30 20 37 46 71 77 38 3 0 0 0 0 0 0 0 0 0 0 0 0 0 0 0 0 0 0 0 0 0 0 0 0 0 0 0 0 0 0 0 0 0 0 0
17 70 92 75 8 0 21 19 22 0 0 0 0 0 0 0 0 0 0 0 0 0 0 0 0 0 0 0 0 0 0 0 0 0 0 0 0 0 0 0 0 0 0 0
5 26 11 3 12 0 0 0 0 0 0 0 0 0 0 0 0 0 0 0 0 0 0 0 0 0 0 0 0 0 0 0 0 0 0 0 0 0 0 0 0 0 0 0
11 0 0 0 0 0 0 0 0 0 0 0 0 0 0 0 0 0 0 0 0 0 0 0 0 0 0 0 0 0 0 0 0 0 0 0 0 0 0 0 0 0 0 0
0 0 0 0 0 0 0 0 0 0 0 0 0 0 0 0 0 0 0 0 0 1 2 2 0 0 0 0 0 0 0 0 0 0 0 0 0 0 0 0 0 0 0 0
0 0 0 0 0 0 0 0 0 0 0 0 0 0 0 0 0 1 0 0 1 1 0 0 0 0 0 0 0 0 0 0 0 0 0 0 0 0 0 0 0 0 0 0
0 0 0 0 0 0 0 0 0 0 0 0 0 0 0 0 0 0 1 1 0 0 0 0 0 0 0 0 0 0 0 0 0 0 0 0 0 0 0 0 0 0 0 0
0 0 0 0 0 0 2 2 3 1 2 0 0 0 1 1 2 2 0 0 0 1 0 0 0 0 0 0 0 0 0 0 0 0 0 0 0 0 0 0 0 0 0 0
0 0 1 1 1 2 6 3 3 3 2 1 0 0 1 1 1 0 0 1 0 0 0 0 0 0 0 0 0 0 0 0 0 0 0 0 0 0 0 0 0 0 0 0
8 7 4 5 4 1 1 0 2 3 2 1 1 2 2 1 0 0 1 0 0 0 0 0 0 0 0 0 0 0 0 0 0 0 0 0 0 0 0 0 0 0 0 0
2 2 1 1 1 1 2 1 2 1 1 1 1 1 0 0 0 0 0 0 0 0 0 0 0 0 0 0 0 1 0 0 0 0 0 0 0 0 1 0 0 0 0 0
1 1 2 3 3 3 2 2 2 1 1 1 0 0 0 0 0 0 0 0 0 0 0 0 0 0 0 0 0 1 0 0 0 0 1 0 1 1 1 0 0 0 0 0
1 0 2 1 0 0 2 2 0 0 0 0 0 0 0 1 0 0 0 0 0 1 0 0 0 0 0 1 1 1 0 1 1 2 1 0 2 3 1 1 1 1 0 0
1 1 0 0 0 0 0 0 0 0 0 0 0 0 0 0 1 2 2 0 0 2 0 0 0 0 0 3 2 2 2 3 4 0 1 3 1 0 1 2 1 1 0 0
1 0 0 1 0 1 1 1 2 3 2 2 2 2 4 4 4 4 0 1 1 1 2 3 1 1 2 2 0 2 2 3 4 3 1 1 1 1 1 1 0 0 0 0
0 0 0 0 0 0 0 0 1 1 1 3 2 2 1 2 0 1 1 3 3 4 4 5 3 1 2 0 1 2 2 4 1 1 0 1 0 0 0 0 0 0 0 0
CIN
-0 -5 -5 -5 -0 -0 -1 -4 -4 -1 -7 -4 -16 -14 -3 -3 -3 -4 -0 -0 -3 -11 -16 -42 -72 -78 -66 -51 -96 -187 -80 -0 -0 -0 -0 -0 -0 -0 -0 -0 -0 -0 -0 -0
-5 -3 -4 -5 -0 -0 -0 -4 -0 -0 -3 -9 -6 -2 -0 -0 -0 -0 -0 -0 -0 -39 -21 -27 -56 -59 -77 -215 -361 -0 -0 -0 -0 -0 -0 -0 -0 -0 -0 -0 -0 -0 -0 -0
-3 -5 -4 -3 -0 -0 -0 -0 -0 -1 -2 -7 -8 -3 -0 -0 -0 -0 -0 -162 -66 -80 -55 -62 -72 -244 -0 -0 -0 -0 -0 -0 -0 -0 -0 -0 -0 -0 -0 -0 -0 -0 -0 -0
-5 -1 -3 -0 -0 -0 -0 -0 -1 -4 -3 -3 -4 -0 -0 -0 -0 -0 -13 -0 -186 -121 -133 -128 -154 -0 -0 -0 -0 -0 -0 -0 -0 -0 -0 -0 -0 -0 -0 -0 -0 -1 -0 -0
-7 -0 -0 -0 -0 -0 -0 -0 -0 -5 -0 -2 -4 -0 -0 -0 -0 -0 -0 -48 -271 -219 -207 -213 -1 -0 -0 -0 -0 -0 -0 -0 -0 -0 -0 -0 -0 -0 -0 -0 -0 -0 -0 -0
-30 -0 -0 -0 -0 -5 -0 -0 -0 -5 -3 -0 -0 -0 -0 -0 -0 -0 -0 -0 -0 -0 -0 -1 -1 -1 -1 -0 -0 -0 -0 -0 -0 -0 -0 -0 -0 -0 -0 -0 -0 -0 -0 -0
-12 -8 -3 -0 -9 -53 -0 -0 -2 -5 -0 -0 -0 -0 -0 -0 -0 -0 -0 -0 -0 -0 -0 -0 -0 -0 -0 -0 -0 -0 -0 -0 -0 -0 -0 -0 -0 -0 -0 -0 -0 -0 -0 -0
-23 -5 -8 -2 -0 -50 -41 -15 -5 -0 -0 -0 -0 -0 -0 -0 -0 -0 -0 -0 -0 -0 -0 -0 -0 -0 -0 -0 -0 -0 -0 -0 -0 -0 -0 -0 -0 -0 -0 -0 -0 -0 -0 -0
-2 -3 -11 -65 -25 -54 -27 -15 -7 -27 -0 -0 -0 -0 -0 -0 -0 -0 -0 -0 -0 -0 -0 -0 -0 -0 -0 -0 -0 -0 -0 -0 -0 -0 -0 -0 -0 -0 -0 -0 -0 -0 -0 -0
-1 -2 -7 -15 -38 -53 -52 -56 -40 -37 -0 -0 -0 -0 -0 -0 -0 -0 -0 -0 -0 -0 -0 -0 -0 -0 -0 -0 -0 -0 -0 -0 -0 -0 -0 -0 -0 -0 -0 -0 -0 -0 -0 -0
-0 -0 -8 -6 -33 -43 -39 -79 -0 -0 -0 -0 -0 -0 -0 -0 -0 -0 -0 -0 -0 -0 -0 -0 -0 -0 -0 -0 -0 -0 -0 -0 -0 -0 -0 -0 -0 -0 -0 -0 -0 -0 -0 -0
-24 -36 -30 -26 -29 -7 -25 -56 -100 -0 -0 -0 -0 -0 -0 -0 -0 -0 -0 -0 -0 -0 -0 -0 -0 -0 -0 -0 -0 -0 -0 -0 -0 -0 -0 -0 -0 -0 -0 -0 -0 -0 -0 -0
-20 -9 -42 -65 -138 -4 -79 -58 -82 -0 -0 -0 -0 -0 -0 -0 -0 -0 -0 -0 -0 -0 -0 -0 -0 -0 -0 -0 -0 -0 -0 -0 -0 -0 -0 -0 -0 -0 -0 -0 -0 -0 -0 -0
-3 -89 -87 -82 -26 -0 -0 -0 -0 -0 -0 -0 -0 -0 -0 -0 -0 -0 -0 -0 -0 -0 -0 -0 -0 -0 -0 -0 -0 -0 -0 -0 -0 -0 -0 -0 -0 -0 -0 -0 -0 -0 -0 -0
-83 -0 -0 -0 -0 -0 -0 -0 -0 -0 -0 -0 -0 -0 -0 -0 -0 -0 -0 -0 -0 -0 -0 -0 -0 -0 -0 -0 -0 -0 -0 -0 -0 -0 -0 -0 -0 -0 -0 -0 -0 -0 -0 -0
-0 -0 -0 -0 -0 -0 -0 -0 -0 -0 -0 -0 -0 -0 -0 -0 -0 -0 -0 -0 -0 -0 -0 -0 -0 -0 -0 -0 -0 -0 -0 -0 -0 -0 -0 -0 -0 -0 -0 -0 -0 -0 -0 -0
-0 -0 -0 -0 -0 -0 -0 -0 -0 -0 -0 -0 -0 -0 -0 -0 -0 -0 -0 -0 -0 -0 -0 -0 -0 -0 -0 -0 -0 -0 -0 -0 -0 -0 -0 -0 -0 -0 -0 -0 -0 -0 -0 -0
-0 -0 -0 -0 -0 -0 -0 -0 -0 -0 -0 -0 -0 -0 -0 -0 -0 -0 -0 -0 -0 -0 -0 -0 -0 -0 -0 -0 -0 -0 -0 -0 -0 -0 -0 -0 -0 -0 -0 -0 -0 -0 -0 -0
-0 -0 -0 -0 -0 -0 -0 -0 -0 -0 -0 -0 -0 -0 -0 -0 -0 -0 -0 -0 -0 -0 -0 -0 -0 -0 -0 -0 -0 -0 -0 -0 -0 -0 -0 -0 -0 -0 -0 -1 -0 -0 -0 -2
-0 -0 -0 -0 -0 -0 -0 -0 -0 -0 -0 -0 -0 -0 -0 -0 -0 -0 -0 -0 -0 -0 -0 -0 -0 -0 -0 -0 -0 -0 -0 -0 -0 -0 -0 -0 -0 -2 -0 -0 -2 -2 -4 -5
-0 -0 -0 -0 -0 -0 -0 -0 -0 -0 -0 -0 -0 -0 -0 -0 -0 -0 -0 -0 -0 -0 -0 -0 -0 -0 -0 -0 -0 -0 -0 -0 -0 -0 -0 -1 -1 -2 -3 -4 -4 -4 -5 -6
-0 -0 -0 -0 -0 -0 -0 -0 -0 -0 -0 -0 -0 -0 -0 -0 -0 -0 -0 -0 -0 -0 -0 -0 -0 -0 -0 -0 -0 -0 -0 -0 -0 -0 -2 -2 -3 -3 -3 -5 -4 -5 -3 -3
-0 -0 -0 -0 -0 -0 -0 -0 -0 -0 -0 -0 -0 -0 -0 -0 -0 -0 -0 -0 -0 -0 -0 -0 -0 -0 -0 -0 -1 -1 -2 -2 -1 -2 -3 -2 -2 -3 -3 -4 -4 -4 -3 -3
-0 -0 -0 -0 -0 -0 -0 -0 -0 -0 -0 -0 -0 -0 -1 -1 -0 -0 -0 -0 -0 -0 -0 -0 -0 -0 -0 -1 -1 -1 -2 -3 -2 -2 -3 -1 -3 -2 -3 -2 -2 -2 -2 -1
-0 -0 -1 -0 -0 -0 -0 -0 -0 -1 -0 -0 -0 -0 -1 -1 -1 -1 -1 -0 -0 -0 -0 -0 -0 -0 -2 -1 -1 -1 -1 -1 -1 -2 -2 -2 -3 -3 -3 -2 -2 -2 -1 -0
-0 -0 -1 -1 -1 -1 -1 -1 -0 -0 -1 -0 -0 -1 -1 -0 -0 -0 -0 -1 -1 -1 -1 -1 -1 -1 -1 -1 -1 -1 -2 -2 -2 -2 -3 -2 -2 -2 -2 -2 -2 -1 -1 -1
-1 -1 -0 -0 -1 -1 -1 -0 -0 -0 -1 -1 -1 -1 -2 -1 -1 -1 -0 -1 -1 -1 -1 -1 -2 -2 -2 -2 -2 -2 -2 -2 -3 -2 -2 -2 -2 -2 -2 -2 -1 -0 -0 -0
Wind_Speed
30 27 22 17 10 9 13 14 18 11 16 15 6 15 29 30 20 16 13 11 10 11 8 6 5 4 5 5 6 6 8 9 9 7 5 6 7 7 6 7 10 11 12 13
31 28 29 25 19 15 14 7 8 10 12 11 34 28 32 29 29 18 17 17 17 15 11 7 7 6 7 6 7 7 7 7 7 7 6 6 7 8 9 10 10 13 13 15
34 29 29 31 13 18 15 8 11 9 8 5 6 10 33 34 23 14 17 18 18 16 12 9 8 7 7 7 5 5 7 7 6 6 5 5 7 9 10 11 13 15 17 21
27 26 29 23 18 13 12 14 12 8 9 14 19 37 27 26 23 19 19 18 17 14 11 9 8 7 6 5 5 5 6 5 5 4 5 6 8 9 11 13 16 19 19 20
31 32 33 29 20 17 18 17 10 13 19 22 33 26 26 21 20 16 15 14 11 8 7 6 6 5 4 5 5 5 4 4 4 4 6 7 9 11 16 17 18 18 20 21
24 35 35 27 22 20 22 29 21 19 14 22 19 23 30 11 11 10 9 8 7 7 6 6 5 4 4 4 3 4 4 4 4 5 7 10 13 15 16 18 19 20 21 22
30 29 28 21 16 16 15 20 24 17 19 18 16 21 14 10 8 7 6 5 6 6 6 6 5 5 5 4 4 4 4 4 6 8 10 12 14 16 17 18 20 21 23 25
32 32 33 13 12 14 18 27 20 18 19 14 14 14 13 9 7 4 3 3 4 5 6 5 5 4 4 5 5 4 5 6 9 11 13 15 16 17 19 19 21 23 25 26
26 27 26 14 21 19 27 27 22 22 19 16 12 13 10 9 6 5 3 3 3 4 5 6 5 5 5 6 5 6 7 10 12 14 16 17 18 19 21 21 23 24 26 27
39 38 35 28 26 23 25 24 21 20 18 15 12 11 10 8 7 5 4 4 4 4 5 7 7 7 7 7 8 8 10 12 14 16 17 18 18 20 21 24 25 26 27 29
37 38 38 29 29 26 24 21 18 17 16 15 15 13 10 9 8 6 5 5 5 5 6 7 8 9 9 9 9 10 12 14 16 17 18 19 20 22 22 23 25 27 28 30
31 31 36 37 30 28 23 21 19 20 21 19 15 11 9 9 8 6 6 5 6 6 6 8 9 10 11 12 12 13 15 17 18 19 21 21 21 21 22 22 23 24 26 29
35 30 26 23 21 24 21 21 25 21 20 21 16 11 8 7 6 6 6 6 5 5 6 8 9 11 14 16 16 16 17 18 19 21 22 24 24 24 26 24 22 24 25 28
26 27 30 24 24 23 23 23 23 23 22 19 14 10 8 7 5 6 7 6 5 6 8 9 10 14 15 15 15 16 18 20 21 22 24 24 25 26 27 29 31 31 26 29
25 24 26 22 22 22 22 23 21 21 19 17 15 10 8 8 7 6 6 7 7 8 10 11 14 17 16 15 15 19 21 22 22 23 24 25 26 27 29 30 31 32 33 32
24 21 21 21 21 21 21 20 20 20 17 14 12 10 7 6 6 7 7 8 9 11 12 13 15 16 16 16 18 20 22 23 24 24 25 27 28 30 31 32 33 34 35 36
19 21 21 21 20 20 20 19 17 15 12 10 8 7 6 7 9 11 11 11 11 12 12 15 16 16 17 19 20 22 23 24 26 26 27 29 30 31 33 34 35 36 36 36
19 19 19 18 17 16 15 14 13 11 10 8 7 7 7 8 8 9 10 12 13 15 17 18 18 18 20 22 23 24 26 27 27 28 30 31 32 33 35 35 36 36 37 36
16 15 15 15 14 13 12 11 11 10 9 9 9 9 9 10 10 10 12 14 15 17 18 18 19 21 23 24 25 26 27 29 30 31 32 34 34 35 36 36 37 37 38 38
14 13 13 13 12 11 10 9 10 10 11 10 9 9 10 11 11 13 15 17 18 17 17 19 21 23 24 26 27 28 29 31 33 34 35 36 36 37 37 37 37 39 39 39
9 9 9 10 10 11 11 11 11 12 12 11 11 11 12 13 14 14 17 19 18 18 19 21 23 25 26 28 29 31 33 34 35 36 37 38 38 38 39 39 40 40 39 38
7 8 9 10 11 12 14 13 13 13 13 13 14 14 14 16 17 19 20 19 18 19 22 24 25 28 30 31 32 34 35 36 37 37 38 39 40 41 40 40 40 39 38 37
10 10 11 12 13 13 14 15 15 15 15 15 16 16 18 18 19 21 22 21 21 23 25 26 28 30 32 33 34 35 37 38 38 38 39 40 40 40 39 39 38 37 37 36
12 13 13 14 14 14 15 15 16 17 17 17 19 20 20 21 23 23 22 23 25 26 28 29 31 33 34 35 36 37 38 39 39 38 39 40 38 37 37 36 36 35 35 34
14 14 14 14 15 15 15 16 17 17 18 20 21 22 24 25 24 25 25 26 28 29 29 31 33 35 36 37 38 38 38 38 38 39 38 37 37 36 36 35 35 34 33 32
14 15 16 16 16 16 17 18 19 20 21 22 24 25 26 26 26 26 27 29 30 32 34 35 36 37 38 38 38 38 38 38 37 37 36 36 36 36 35 34 33 32 31 31
16 16 17 18 19 19 20 21 21 23 24 25 26 27 28 28 28 29 30 31 34 34 35 36 37 37 37 37 38 38 38 37 36 36 36 35 34 34 33 32 31 30 29 28
Wind_Direction
256 264 274 276 269 223 215 212 215 225 227 223 210 337 294 288 309 311 327 332 327 320 323 328 321 301 281 269 282 280 294 295 296 299 308 319 332 342 349 333 333 328 325 319
256 261 267 272 281 285 288 267 244 226 226 213 278 306 287 289 289 308 313 317 320 320 317 316 315 310 310 300 296 293 295 302 303 308 314 322 337 343 340 332 331 329 325 322
255 262 266 266 263 282 289 272 297 274 294 253 234 279 288 283 302 308 311 311 314 315 314 312 310 310 305 305 302 302 307 312 317 321 325 335 336 336 335 332 329 327 325 322
258 262 260 273 281 281 277 284 291 279 294 310 239 276 301 301 303 307 309 310 313 315 316 316 316 311 308 308 307 310 309 319 329 334 335 337 334 334 334 332 326 325 326 327
256 259 268 273 276 282 289 295 288 295 303 305 293 305 303 307 309 312 318 324 332 344 356 8 14 25 11 345 332 328 328 336 343 341 337 337 332 332 327 326 327 328 329 329
263 260 265 272 274 284 295 295 298 302 309 309 316 313 307 322 325 329 333 342 355 11 20 21 27 32 15 9 2 347 347 347 351 347 335 331 327 329 331 330 329 330 330 331
257 267 273 281 278 278 278 296 311 313 316 312 317 314 328 331 331 339 345 357 8 13 12 11 11 8 4 10 356 3 15 11 349 341 334 333 334 332 332 331 330 330 331 331
258 264 266 290 288 275 292 294 306 309 315 316 318 324 325 323 322 332 347 359 1 3 6 10 10 7 1 354 8 9 359 347 340 337 334 333 332 333 332 331 330 329 330 331
263 272 279 274 283 285 285 295 302 306 312 315 311 316 316 309 306 307 317 332 347 350 350 349 353 352 349 350 355 350 343 337 335 334 334 334 332 331 331 332 331 330 330 330
264 265 272 282 283 289 293 296 303 307 312 312 309 309 304 298 294 291 295 305 320 329 334 338 341 342 342 344 343 339 334 332 331 329 331 334 334 335 333 331 330 330 330 330
267 269 269 276 284 290 292 299 303 307 310 307 303 297 292 285 283 284 290 300 308 320 330 335 338 336 335 333 335 335 334 334 331 329 328 331 334 334 334 335 334 331 331 331
273 278 271 272 285 286 290 292 295 300 303 306 299 288 278 280 278 277 284 293 305 315 326 331 334 334 334 330 326 327 327 330 329 326 325 328 329 331 336 336 337 336 335 333
270 281 286 292 298 294 294 294 297 300 302 304 300 291 276 273 273 277 279 288 300 310 322 328 334 335 334 332 328 327 329 330 328 326 325 326 329 330 328 330 334 333 333 333
276 282 283 290 294 298 299 301 301 303 303 301 296 293 282 283 284 283 286 296 312 318 320 325 330 333 338 336 336 335 333 331 328 327 327 329 330 329 329 328 328 329 328 330
283 284 286 296 301 303 305 306 306 305 305 303 298 292 283 285 284 293 307 316 323 325 324 326 326 326 334 337 335 330 328 329 331 330 330 329 329 329 328 328 328 327 328 329
284 288 295 298 301 304 308 311 310 308 305 306 301 299 298 302 315 317 326 321 314 314 320 327 331 333 335 334 332 330 329 330 329 329 329 329 328 328 327 327 327 327 327 327
289 291 293 297 303 308 311 314 314 317 316 316 316 316 316 322 318 317 325 327 330 339 337 336 335 341 339 336 333 331 330 329 329 328 328 328 328 327 327 326 326 326 326 329
297 301 304 305 308 312 318 323 327 336 334 332 340 339 333 331 333 327 329 333 337 337 335 335 337 340 336 334 333 331 329 328 328 328 328 327 327 327 327 326 326 326 326 327
311 313 317 318 320 322 326 330 334 346 354 353 351 341 338 345 345 343 338 336 334 332 334 337 338 336 334 334 332 331 330 329 328 328 328 327 326 327 327 326 326 326 326 326
313 318 323 327 333 337 341 349 354 357 4 8 12 7 357 353 351 347 342 339 338 339 341 339 336 334 334 334 332 331 330 328 327 326 326 327 326 326 326 326 326 325 326 326
331 336 341 346 352 2 6 7 8 7 10 13 14 7 2 358 354 350 342 337 340 342 340 337 334 333 333 332 330 329 328 327 326 326 326 325 325 325 324 324 325 325 326 326
3 17 23 23 18 15 15 19 23 23 20 16 11 7 1 354 349 346 343 339 340 338 336 334 333 333 331 329 328 328 327 326 326 326 325 325 324 324 324 324 325 326 327 327
31 32 32 27 27 30 29 23 19 17 15 10 5 360 354 350 345 340 337 340 338 335 333 333 332 331 330 329 328 327 327 326 325 325 325 324 324 324 324 325 326 327 327 328
44 39 37 35 33 27 21 18 18 15 11 7 0 353 349 345 344 345 344 340 337 334 333 333 332 331 330 329 328 327 326 326 325 325 325 325 325 326 326 327 327 328 329 329
41 37 32 26 20 18 19 15 11 8 4 360 356 352 348 345 342 341 340 338 337 335 334 334 333 332 330 329 328 328 327 327 327 326 326 327 328 328 328 328 329 329 330 331
28 23 21 18 15 11 7 4 359 356 353 350 348 346 345 344 343 342 340 338 337 335 333 332 332 332 332 331 330 329 329 328 328 329 329 329 329 329 330 330 331 332 333 333
27 23 17 12 7 4 0 357 353 350 347 346 344 345 344 343 342 340 339 338 336 336 335 335 334 334 334 334 332 331 331 330 331 330 330 330 331 331 332 333 334 334 335 336